[[{"header":{"parameterUnit":"m.s-1","parameterCategory":1,"la1":30.2991,"la2":30.254,"lo1":-89.0895,"lo2":-89.0444,"dy":0.0017,"dx":0.0017,"nx":28,"ny":28,"refTime":"2024-03-20T03:00:00:Z","depth":0,"parameterNumber":2,"parameterNumberName":"U-component_of_WINDS"},"data":[0,0,0,0,0,0,0,0,0,0,0,0,0,0,0,0,0,0,0,0,0,0,0,0,0,0,0,0,0,0,0,0,0,0,0,0,0,0,0,0,0,0,0,0,0,0,0,0,0,0,0,0,0,0,0,0,0,0,1.0146,1.0146,0,1.0149,1.0149,1.0149,1.0139,1.0139,1.0138,1.0138,1.0141,1.0141,1.0142,0,0,0,0,0,0,0,0,0,0,0,0,0,1.013,1.013,1.0146,1.0146,1.0146,1.0149,1.0149,1.0149,1.0139,1.0139,1.0138,1.0138,1.0141,1.0141,1.0142,0,0,0,0,0,0,0,0,0,0,0,0,0,1.0136,1.0131,1.0146,1.0141,1.0141,1.0149,1.0149,1.0149,1.0139,1.0139,1.0138,1.0138,1.0141,1.0141,1.0142,1.0155,0,0,1.0144,1.0144,0,0,0,0,0,0,0,0,1.0135,1.0136,1.0142,1.0141,1.0141,1.0143,1.0145,1.0151,1.0139,1.014,1.0138,1.0137,1.0142,1.0143,1.0144,1.0155,1.0155,1.0144,1.0144,1.0144,1.0144,0,0,0,0,0,0,0,1.0135,1.0136,1.0147,1.0142,1.0141,1.0139,1.0139,1.0146,1.0143,1.014,1.0139,1.0139,1.0142,1.0144,1.0144,1.0155,1.0144,1.0144,1.0145,1.0145,1.0178,1.0179,0,0,0,0,0,0,1.0135,1.0136,1.0147,1.0147,1.0137,1.014,1.014,1.0143,1.0143,1.0143,1.014,1.0139,1.0143,1.0144,1.0144,1.016,1.0144,1.0145,1.0145,1.0178,1.0178,1.0179,0,0,0,0,0,0,1.0135,1.0136,1.0147,1.0141,1.0142,1.014,1.0144,1.0143,1.0145,1.0144,1.0143,1.0142,1.0143,1.0143,1.0153,1.016,1.0145,1.0146,1.0177,1.0178,1.0178,1.0191,0,0,0,0,0,0,1.0134,1.0136,1.0141,1.0141,1.0143,1.0155,1.0144,1.0144,1.0146,1.0145,1.0146,1.0145,1.0142,1.0152,1.0153,1.016,1.0146,1.0176,1.0177,1.0178,1.019,1.0193,1.0195,0,0,0,0,0,1.0134,1.0144,1.0141,1.0143,1.0149,1.0155,1.0156,1.0153,1.0147,1.0152,1.0151,1.0145,1.0159,1.0153,1.0154,1.0162,1.0176,1.0177,1.0178,1.0189,1.0192,1.0194,0,0,0,0,0,0,1.0144,1.0144,1.0141,1.0152,1.0154,1.0154,1.016,1.0156,1.0159,1.0158,1.0153,1.0154,1.0164,1.0164,1.0157,1.0175,1.0166,1.0168,1.0174,1.0177,1.0179,1.0179,1.0146,0,0,0,0,0,1.0148,1.0153,1.0153,1.0162,1.0164,1.0162,1.0164,1.0162,1.0163,1.0164,1.0164,1.0166,1.0171,1.0174,1.0178,1.0191,1.0191,1.0197,1.0199,1.02,1.0202,1.0209,1.0211,1.0183,1.0183,1.0183,0,0,1.0155,1.0156,1.0159,1.0164,1.0166,1.0172,1.0162,1.0169,1.0173,1.0165,1.0174,1.0174,1.0176,1.0187,1.0192,1.0187,1.021,1.0202,1.0203,1.0204,1.021,1.0213,1.0215,1.0184,1.0183,1.0183,0,0,1.0171,1.0172,1.018,1.0182,1.0185,1.0183,1.0185,1.0186,1.0186,1.0195,1.0189,1.0195,1.0203,1.0205,1.0207,1.0225,1.022,1.0227,1.0238,1.0245,1.0247,1.0249,1.0255,1.0258,1.0228,1.0228,1.0228,0,1.018,1.0188,1.0185,1.0192,1.0195,1.0189,1.0197,1.0199,1.0203,1.0205,1.02,1.0211,1.0212,1.0223,1.0228,1.023,1.0232,1.0226,1.0247,1.0249,1.025,1.0257,1.0259,1.0229,1.0229,1.0229,1.0229,0,1.0199,1.0205,1.0212,1.0216,1.0219,1.0227,1.0225,1.0229,1.0227,1.0226,1.0236,1.0237,1.0241,1.0244,1.0241,1.0256,1.0253,1.0248,1.0239,1.0254,1.026,1.0262,1.023,1.023,1.023,1.0229,0,0,1.022,1.0224,1.0226,1.0228,1.0231,1.0236,1.0244,1.0249,1.0252,1.0256,1.0262,1.027,1.0265,1.0268,1.0265,1.0272,1.0286,1.0266,1.0266,1.0269,1.0303,1.0306,1.0309,1.0284,1.0284,1.0284,1.0302,0,1.0236,1.025,1.0248,1.0261,1.0267,1.0262,1.0269,1.0272,1.0272,1.0277,1.0277,1.0283,1.0276,1.0278,1.0283,1.0283,1.0293,1.0282,1.029,1.029,1.0289,1.0312,1.0316,1.0333,1.0305,1.0305,1.0305,0,1.0256,1.0261,1.0275,1.0278,1.028,1.0286,1.0291,1.0296,1.0299,1.0299,1.0302,1.0299,1.0307,1.0299,1.0311,1.0303,1.0306,1.0307,1.0308,1.0308,1.0298,1.0313,1.0338,1.034,1.0309,1.0309,1.0308,0,1.0271,1.028,1.029,1.0292,1.0295,1.03,1.0302,1.0304,1.0308,1.0312,1.0315,1.032,1.0323,1.0327,1.0326,1.032,1.0337,1.0329,1.0337,1.0337,1.0341,1.034,1.0367,1.0343,1.0343,1.0343,1.0343,0,1.0289,1.0297,1.0297,1.0302,1.0312,1.031,1.032,1.0321,1.0324,1.033,1.0326,1.0332,1.033,1.0336,1.0335,1.0345,1.0346,1.0346,1.0345,1.0346,1.0346,1.0347,1.0346,1.0344,1.0344,1.0344,1.0344,0,1.0306,1.0306,1.0316,1.0319,1.032,1.0327,1.0329,1.0335,1.0335,1.0343,1.0345,1.0345,1.0352,1.0351,1.0359,1.0358,1.037,1.0369,1.0369,1.0369,1.0377,1.0376,1.0405,1.0409,1.0384,1.0384,1.0384,0,1.0317,1.0324,1.0327,1.0332,1.0334,1.034,1.0344,1.0343,1.0347,1.0352,1.0357,1.0364,1.0369,1.038,1.0381,1.0387,1.0385,1.0395,1.0386,1.0386,1.0385,1.0384,1.0385,1.0396,1.0396,1.0397,1.0397,0,1.0337,1.0337,1.0342,1.0348,1.0353,1.0358,1.0362,1.0366,1.0365,1.037,1.0377,1.0381,1.0389,1.0396,1.0402,1.0404,1.04,1.04,1.0402,1.0402,1.0402,1.0403,1.0374,1.0399,1.0399,1.0399,1.0398,1.0398,1.0351,1.0357,1.0361,1.0368,1.0371,1.0375,1.0381,1.0382,1.0389,1.0395,1.0394,1.0402,1.0406,1.0414,1.0416,1.0423,1.0419,1.0423,1.0423,1.0424,1.0425,1.0402,1.0424,1.0424,1.0424,1.0424,1.0424,0,1.0371,1.0373,1.0379,1.0386,1.0391,1.0388,1.0393,1.0398,1.0405,1.0409,1.0415,1.0424,1.043,1.0432,1.0439,1.0444,1.0442,1.0446,1.0445,1.0445,1.0428,1.0425,1.0447,1.0447,1.0447,1.0447,1.0447,1.0447,1.0381,1.0391,1.0392,1.0404,1.0406,1.0415,1.0418,1.0422,1.0425,1.0435,1.0441,1.0442,1.0446,1.0453,1.0459,1.046,1.0462,1.0466,1.0465,1.0449,1.0447,1.0444,1.0442,1.0466,1.0466,1.0482,1.0483,1.0483]},{"header":{"parameterUnit":"m.s-1","parameterCategory":1,"la1":30.2991,"la2":30.254,"lo1":-89.0895,"lo2":-89.0444,"dy":0.0017,"dx":0.0017,"nx":28,"ny":28,"refTime":"2024-03-20T03:00:00:Z","depth":0,"parameterNumber":3,"parameterNumberName":"V-component_of_WINDS"},"data":[0,0,0,0,0,0,0,0,0,0,0,0,0,0,0,0,0,0,0,0,0,0,0,0,0,0,0,0,0,0,0,0,0,0,0,0,0,0,0,0,0,0,0,0,0,0,0,0,0,0,0,0,0,0,0,0,0,0,-1.9821,-1.9822,0,-1.9901,-1.9902,-1.9902,-1.9901,-1.99,-1.9899,-1.9898,-1.9979,-1.9982,-1.9986,0,0,0,0,0,0,0,0,0,0,0,0,0,-1.9668,-1.967,-1.9821,-1.9822,-1.9823,-1.99,-1.9902,-1.9903,-1.9901,-1.99,-1.9899,-1.9898,-1.9978,-1.9982,-1.9986,0,0,0,0,0,0,0,0,0,0,0,0,0,-1.9739,-1.9671,-1.9821,-1.9831,-1.9833,-1.99,-1.9902,-1.9903,-1.9902,-1.99,-1.9898,-1.9897,-1.9977,-1.9982,-1.9986,-2.0048,0,0,-2.0001,-2.0003,0,0,0,0,0,0,0,0,-1.9735,-1.9745,-1.9829,-1.9831,-1.9833,-1.9889,-1.9877,-1.9951,-1.9902,-1.9876,-1.9898,-1.9896,-1.9951,-1.9957,-1.9976,-2.0051,-2.0055,-2.0001,-2.0004,-2.0006,-2.0008,0,0,0,0,0,0,0,-1.973,-1.9742,-1.9852,-1.983,-1.9833,-1.9833,-1.9841,-1.9891,-1.9921,-1.9878,-1.9878,-1.9887,-1.9951,-1.9971,-1.9978,-2.0056,-2.0001,-2.0005,-2.0008,-2.001,-2.0188,-2.019,0,0,0,0,0,0,-1.9723,-1.9737,-1.985,-1.9855,-1.9779,-1.9837,-1.9846,-1.9873,-1.9921,-1.9926,-1.9889,-1.9887,-1.9964,-1.9972,-1.9981,-2.0057,-2.0006,-2.0011,-2.0013,-2.0186,-2.0188,-2.019,0,0,0,0,0,0,-1.972,-1.9733,-1.9847,-1.9796,-1.9811,-1.9841,-1.9871,-1.9875,-1.9895,-1.9929,-1.9934,-1.9904,-1.9963,-1.9974,-2.0032,-2.006,-2.0013,-2.0017,-2.0184,-2.0187,-2.0189,-2.0209,0,0,0,0,0,0,-1.9715,-1.9732,-1.9755,-1.9797,-1.9813,-1.9896,-1.9873,-1.9878,-1.9903,-1.9902,-1.9944,-1.995,-1.9963,-2.0024,-2.0036,-2.0065,-2.0021,-2.0181,-2.0185,-2.0188,-2.0206,-2.0212,-2.0218,0,0,0,0,0,-1.971,-1.9757,-1.9757,-1.977,-1.9843,-1.9897,-1.9907,-1.9921,-1.9906,-1.993,-1.9952,-1.9948,-2.0055,-2.003,-2.0044,-2.0075,-2.018,-2.0184,-2.0188,-2.0204,-2.0211,-2.0218,0,0,0,0,0,0,-1.9718,-1.9763,-1.9763,-1.9825,-1.9857,-1.9897,-1.9928,-1.9928,-1.9966,-1.9963,-1.9979,-1.9989,-2.0046,-2.0066,-2.0038,-2.0137,-2.0115,-2.0122,-2.0123,-2.013,-2.0136,-2.013,-2.0025,0,0,0,0,0,-1.9727,-1.9767,-1.9804,-1.9856,-1.9872,-1.9897,-1.9921,-1.993,-1.9964,-1.9978,-2.0004,-2.0037,-2.0078,-2.0105,-2.0145,-2.0209,-2.0219,-2.0237,-2.0243,-2.0247,-2.0253,-2.029,-2.0299,-2.0204,-2.0204,-2.0204,0,0,-1.9746,-1.9776,-1.98,-1.9858,-1.9884,-1.9926,-1.9909,-1.9953,-1.9985,-1.9984,-2.0041,-2.0061,-2.01,-2.0161,-2.0189,-2.0179,-2.0282,-2.0252,-2.0256,-2.026,-2.0296,-2.0305,-2.0313,-2.0207,-2.0206,-2.0206,0,0,-1.9803,-1.9828,-1.9875,-1.9902,-1.9942,-1.9959,-1.997,-2.001,-2.0024,-2.008,-2.0082,-2.0119,-2.0189,-2.0217,-2.024,-2.0309,-2.0308,-2.0321,-2.0351,-2.0387,-2.0395,-2.0402,-2.0427,-2.0436,-2.0327,-2.0327,-2.0327,0,-1.9821,-1.9884,-1.9898,-1.9944,-1.997,-1.9972,-2.002,-2.0045,-2.0096,-2.0114,-2.0102,-2.0191,-2.0217,-2.0286,-2.0303,-2.0321,-2.0335,-2.0317,-2.0393,-2.0399,-2.0406,-2.0431,-2.044,-2.0328,-2.0328,-2.0328,-2.0328,0,-1.9906,-1.995,-1.9982,-2.0032,-2.0062,-2.0108,-2.013,-2.0158,-2.0164,-2.0182,-2.024,-2.0272,-2.0318,-2.0335,-2.0341,-2.0406,-2.0398,-2.0389,-2.0367,-2.0416,-2.044,-2.0449,-2.0331,-2.033,-2.033,-2.0329,0,0,-1.9969,-2.0028,-2.0039,-2.0063,-2.0108,-2.0142,-2.0189,-2.0235,-2.026,-2.0295,-2.0335,-2.0395,-2.0387,-2.0414,-2.0423,-2.0454,-2.0508,-2.0442,-2.0443,-2.0454,-2.0583,-2.0591,-2.0601,-2.0508,-2.0509,-2.0511,-2.058,0,-2.0032,-2.0115,-2.013,-2.0202,-2.0244,-2.0247,-2.0288,-2.032,-2.0338,-2.0376,-2.0396,-2.0439,-2.0425,-2.0441,-2.0473,-2.0495,-2.0535,-2.049,-2.0546,-2.0548,-2.0538,-2.0613,-2.0621,-2.0685,-2.059,-2.0591,-2.0592,0,-2.0115,-2.0154,-2.0231,-2.0272,-2.029,-2.0326,-2.0371,-2.0406,-2.0444,-2.0455,-2.0485,-2.0491,-2.054,-2.0516,-2.0584,-2.0554,-2.0577,-2.0592,-2.0595,-2.0602,-2.0574,-2.0623,-2.0706,-2.0716,-2.0607,-2.0606,-2.0604,0,-2.0156,-2.0227,-2.0282,-2.0302,-2.0351,-2.0377,-2.0398,-2.0434,-2.0461,-2.05,-2.0518,-2.0561,-2.0585,-2.0619,-2.0637,-2.0617,-2.0705,-2.0681,-2.0716,-2.0716,-2.0736,-2.0734,-2.0824,-2.0749,-2.0749,-2.0748,-2.0748,0,-2.0224,-2.0272,-2.0302,-2.0336,-2.039,-2.0406,-2.0459,-2.048,-2.0512,-2.0551,-2.0555,-2.0592,-2.0612,-2.0652,-2.0666,-2.0722,-2.0732,-2.0743,-2.0747,-2.0744,-2.0743,-2.076,-2.0757,-2.0751,-2.075,-2.075,-2.0749,0,-2.0279,-2.0301,-2.0362,-2.0403,-2.0415,-2.0453,-2.0489,-2.0523,-2.0541,-2.059,-2.0603,-2.0632,-2.0679,-2.07,-2.0757,-2.0767,-2.0831,-2.083,-2.0819,-2.082,-2.0855,-2.0852,-2.096,-2.0976,-2.0889,-2.0889,-2.089,0,-2.0322,-2.0359,-2.0405,-2.0431,-2.0454,-2.0496,-2.0525,-2.0543,-2.0572,-2.0618,-2.0646,-2.0694,-2.0733,-2.0808,-2.0834,-2.0879,-2.088,-2.0915,-2.0887,-2.0883,-2.0883,-2.0881,-2.0885,-2.0921,-2.0922,-2.0922,-2.0923,0,-2.0396,-2.0406,-2.0446,-2.0491,-2.0525,-2.0561,-2.0596,-2.0618,-2.0641,-2.0674,-2.0722,-2.0753,-2.0812,-2.086,-2.0906,-2.0929,-2.093,-2.0931,-2.0942,-2.094,-2.0933,-2.0939,-2.0834,-2.0929,-2.0928,-2.0928,-2.0928,-2.0927,-2.0448,-2.0481,-2.0519,-2.0565,-2.0593,-2.0626,-2.0661,-2.0684,-2.0725,-2.0775,-2.0783,-2.0835,-2.0873,-2.0935,-2.096,-2.1001,-2.0993,-2.1008,-2.1012,-2.1016,-2.1019,-2.0925,-2.1009,-2.1009,-2.1009,-2.1009,-2.1009,0,-2.0524,-2.0549,-2.059,-2.064,-2.0676,-2.0674,-2.0714,-2.0744,-2.079,-2.0825,-2.0863,-2.092,-2.0966,-2.0996,-2.1043,-2.1071,-2.1073,-2.1083,-2.1082,-2.1087,-2.1023,-2.1009,-2.108,-2.108,-2.108,-2.108,-2.108,-2.108,-2.0568,-2.0625,-2.0639,-2.0711,-2.0735,-2.0787,-2.0809,-2.084,-2.0868,-2.0932,-2.097,-2.099,-2.1023,-2.1073,-2.1116,-2.1123,-2.1141,-2.1152,-2.1159,-2.1099,-2.1091,-2.1084,-2.1072,-2.1155,-2.1155,-2.122,-2.1221,-2.1221]}]]